When you browse on this site, cookies collect data to enhance your experience and personalize the content and advertising you see.
Visit our Privacy Policy to learn more. By continuing to use the site, you agree to this use of cookies and data.
  • In Germany
  • List of Countries
  • For 7 days
  • Water Temperature
  • Satellite Maps
  • Weather Map
  • Weather Widgets
  • user-avatar
    Login

    Hourly Weather Jewłach

    Today, 13 December, Thursday

    Time Temperature Precipitation Wind Pressure Humidity
    00:00 +12°C° 0 mm 3 mps 755 mmHg 49%
    01:00 +12°C° 0 mm 3 mps 755 mmHg 50%
    02:00 +12°C° 0 mm 3 mps 755 mmHg 50%
    03:00 +12°C° 0 mm 3 mps 755 mmHg 52%
    04:00 +11°C° 0 mm 3 mps 755 mmHg 54%
    05:00 +11°C° 0 mm 4 mps 756 mmHg 56%
    06:00 +11°C° 0 mm 4 mps 756 mmHg 59%
    07:00 +10°C° 0 mm 5 mps 757 mmHg 58%
    08:00 +12°C° 0 mm 5 mps 757 mmHg 57%
    09:00 +11°C° 0 mm 6 mps 757 mmHg 57%
    10:00 +13°C° 0 mm 6 mps 757 mmHg 51%
    11:00 +14°C° 0 mm 6 mps 758 mmHg 46%
    12:00 +15°C° 0 mm 7 mps 758 mmHg 40%
    13:00 +15°C° 0 mm 7 mps 758 mmHg 39%
    14:00 +14°C° 0 mm 7 mps 759 mmHg 38%
    15:00 +14°C° 0 mm 7 mps 760 mmHg 37%
    16:00 +13°C° 0 mm 6 mps 761 mmHg 38%
    17:00 +11°C° 0 mm 6 mps 762 mmHg 38%
    18:00 +10°C° 0 mm 5 mps 763 mmHg 39%
    19:00 +10°C° 0 mm 5 mps 763 mmHg 40%
    20:00 +9°C° 0 mm 5 mps 764 mmHg 41%
    21:00 +8°C° 0 mm 4 mps 764 mmHg 42%
    22:00 +8°C° 0 mm 4 mps 765 mmHg 43%
    23:00 +8°C° 0 mm 4 mps 765 mmHg 44%

    Tomorrow, 14 December, Friday

    Time Temperature Precipitation Wind Pressure Humidity
    00:00 +7°C° 0 mm 4 mps 766 mmHg 45%
    01:00 +8°C° 0 mm 3 mps 766 mmHg 45%
    02:00 +7°C° 0 mm 3 mps 767 mmHg 45%
    03:00 +7°C° 0 mm 3 mps 767 mmHg 46%
    04:00 +7°C° 0 mm 3 mps 767 mmHg 46%
    05:00 +5°C° 0 mm 3 mps 768 mmHg 47%
    06:00 +6°C° 0 mm 2 mps 768 mmHg 47%
    07:00 +7°C° 0 mm 2 mps 768 mmHg 44%
    08:00 +7°C° 0 mm 2 mps 768 mmHg 42%
    09:00 +8°C° 0 mm 2 mps 768 mmHg 39%
    10:00 +9°C° 0 mm 2 mps 768 mmHg 35%
    11:00 +10°C° 0 mm 2 mps 767 mmHg 31%
    12:00 +12°C° 0 mm 2 mps 767 mmHg 27%
    13:00 +11°C° 0 mm 3 mps 767 mmHg 28%
    14:00 +11°C° 0 mm 3 mps 767 mmHg 28%
    15:00 +11°C° 0 mm 3 mps 766 mmHg 29%
    16:00 +10°C° 0 mm 3 mps 767 mmHg 32%
    17:00 +9°C° 0 mm 3 mps 767 mmHg 35%
    18:00 +9°C° 0 mm 3 mps 767 mmHg 38%
    19:00 +9°C° 0 mm 3 mps 768 mmHg 40%
    20:00 +8°C° 0 mm 3 mps 768 mmHg 42%
    21:00 +8°C° 0 mm 3 mps 768 mmHg 43%
    22:00 +7°C° 0 mm 4 mps 768 mmHg 44%
    23:00 +6°C° 0 mm 4 mps 768 mmHg 45%

    Day after tomorrow, 15 December, Saturday

    Time Temperature Precipitation Wind Pressure Humidity
    00:00 +6°C° 0 mm 4 mps 769 mmHg 46%
    01:00 +6°C° 0 mm 4 mps 769 mmHg 47%
    02:00 +5°C° 0 mm 4 mps 769 mmHg 47%
    03:00 +5°C° 0 mm 4 mps 769 mmHg 47%
    04:00 +5°C° 0 mm 4 mps 769 mmHg 48%
    05:00 +5°C° 0 mm 4 mps 769 mmHg 48%
    06:00 +4°C° 0 mm 4 mps 769 mmHg 49%
    07:00 +5°C° 0 mm 4 mps 770 mmHg 47%
    08:00 +6°C° 0 mm 4 mps 770 mmHg 46%
    09:00 +6°C° 0 mm 4 mps 770 mmHg 44%
    10:00 +7°C° 0 mm 4 mps 770 mmHg 41%
    11:00 +10°C° 0 mm 4 mps 770 mmHg 38%
    12:00 +11°C° 0 mm 4 mps 769 mmHg 35%
    13:00 +11°C° 0 mm 4 mps 769 mmHg 35%
    14:00 +11°C° 0 mm 4 mps 769 mmHg 34%
    15:00 +11°C° 0 mm 4 mps 769 mmHg 34%
    16:00 +10°C° 0 mm 3 mps 769 mmHg 38%
    17:00 +9°C° 0 mm 3 mps 770 mmHg 41%
    18:00 +8°C° 0 mm 2 mps 770 mmHg 45%
    19:00 +8°C° 0 mm 2 mps 770 mmHg 46%
    20:00 +8°C° 0 mm 1 mps 770 mmHg 47%
    21:00 +8°C° 0 mm 1 mps 770 mmHg 48%
    22:00 +8°C° 0 mm 1 mps 770 mmHg 48%
    23:00 +7°C° 0 mm 1 mps 770 mmHg 48%

    16 December, Sunday

    Time Temperature Precipitation Wind Pressure Humidity
    00:00 +7°C° 0 mm 1 mps 770 mmHg 49%
    01:00 +6°C° 0 mm 0 mps 770 mmHg 49%
    02:00 +5°C° 0 mm 0 mps 770 mmHg 49%
    03:00 +5°C° 0 mm 0 mps 770 mmHg 49%
    04:00 +5°C° 0 mm 0 mps 770 mmHg 49%
    05:00 +5°C° 0 mm 0 mps 770 mmHg 50%
    06:00 +5°C° 0 mm 0 mps 770 mmHg 50%
    07:00 +5°C° 0 mm 0 mps 770 mmHg 48%
    08:00 +7°C° 0 mm 1 mps 771 mmHg 45%
    09:00 +8°C° 0 mm 1 mps 771 mmHg 43%
    10:00 +9°C° 0 mm 1 mps 770 mmHg 41%
    11:00 +9°C° 0 mm 2 mps 770 mmHg 40%
    12:00 +10°C° 0 mm 2 mps 770 mmHg 38%
    13:00 +10°C° 0 mm 2 mps 769 mmHg 39%
    14:00 +10°C° 0 mm 2 mps 769 mmHg 40%
    15:00 +10°C° 0 mm 2 mps 769 mmHg 40%
    16:00 +9°C° 0 mm 2 mps 769 mmHg 45%
    17:00 +8°C° 0 mm 2 mps 770 mmHg 49%
    18:00 +8°C° 0 mm 1 mps 770 mmHg 53%
    19:00 +7°C° 0 mm 2 mps 770 mmHg 55%
    20:00 +7°C° 0 mm 2 mps 770 mmHg 56%
    21:00 +7°C° 0 mm 2 mps 770 mmHg 57%
    22:00 +7°C° 0 mm 2 mps 770 mmHg 59%
    23:00 +7°C° 0 mm 2 mps 769 mmHg 61%

    17 December, Monday

    Time Temperature Precipitation Wind Pressure Humidity
    00:00 +7°C° 0 mm 1 mps 769 mmHg 63%
    01:00 +7°C° 0 mm 1 mps 769 mmHg 65%
    02:00 +7°C° 0 mm 1 mps 769 mmHg 67%
    03:00 +7°C° 0 mm 1 mps 768 mmHg 69%
    04:00 +7°C° 0 mm 1 mps 768 mmHg 70%
    05:00 +7°C° 0 mm 1 mps 768 mmHg 71%
    06:00 +7°C° 0 mm 1 mps 767 mmHg 72%
    07:00 +7°C° 0 mm 1 mps 767 mmHg 71%
    08:00 +8°C° 0 mm 1 mps 767 mmHg 70%
    09:00 +8°C° 0 mm 1 mps 767 mmHg 70%
    10:00 +8°C° 0 mm 2 mps 766 mmHg 68%
    11:00 +8°C° 0 mm 2 mps 766 mmHg 67%
    12:00 +9°C° 0 mm 2 mps 765 mmHg 66%
    13:00 +10°C° 0.1 mm 1 mps 765 mmHg 67%
    14:00 +10°C° 0.1 mm 1 mps 765 mmHg 69%
    15:00 +10°C° 0.1 mm 1 mps 765 mmHg 70%
    16:00 +9°C° 0.2 mm 1 mps 765 mmHg 73%
    17:00 +9°C° 0.2 mm 1 mps 765 mmHg 75%
    18:00 +9°C° 0.2 mm 1 mps 765 mmHg 78%
    19:00 +9°C° 0.8 mm 1 mps 765 mmHg 80%
    20:00 +9°C° 0.8 mm 1 mps 765 mmHg 82%
    21:00 +9°C° 0.8 mm 1 mps 765 mmHg 83%
    22:00 +9°C° 0.9 mm 1 mps 765 mmHg 84%
    23:00 +8°C° 0.9 mm 2 mps 765 mmHg 85%

    18 December, Tuesday

    Time Temperature Precipitation Wind Pressure Humidity
    00:00 +7°C° 0.9 mm 2 mps 765 mmHg 86%
    01:00 +7°C° 0.6 mm 2 mps 765 mmHg 86%
    02:00 +7°C° 0.6 mm 2 mps 764 mmHg 86%
    03:00 +7°C° 0.6 mm 2 mps 764 mmHg 86%
    04:00 +7°C° 0.6 mm 2 mps 764 mmHg 86%
    05:00 +7°C° 0.6 mm 2 mps 764 mmHg 86%
    06:00 +7°C° 0.6 mm 2 mps 764 mmHg 86%
    07:00 +7°C° 0.7 mm 2 mps 765 mmHg 86%
    08:00 +7°C° 0.7 mm 2 mps 765 mmHg 86%
    09:00 +7°C° 0.7 mm 2 mps 765 mmHg 86%
    10:00 +7°C° 0.5 mm 2 mps 765 mmHg 85%
    11:00 +8°C° 0.5 mm 2 mps 765 mmHg 84%
    12:00 +8°C° 0.5 mm 2 mps 764 mmHg 83%
    13:00 +9°C° 0.3 mm 1 mps 765 mmHg 84%
    14:00 +9°C° 0.3 mm 1 mps 765 mmHg 84%
    15:00 +9°C° 0.3 mm 1 mps 765 mmHg 84%
    16:00 +9°C° 0.2 mm 1 mps 765 mmHg 87%
    17:00 +9°C° 0.2 mm 1 mps 766 mmHg 89%
    18:00 +7°C° 0.2 mm 0 mps 766 mmHg 91%
    19:00 +7°C° 0.3 mm 0 mps 766 mmHg 92%
    20:00 +8°C° 0.3 mm 1 mps 766 mmHg 93%
    21:00 +8°C° 0.3 mm 1 mps 767 mmHg 94%
    22:00 +8°C° 0.3 mm 1 mps 767 mmHg 94%
    23:00 +8°C° 0.3 mm 1 mps 767 mmHg 94%
    Show more